FW2545 Weather Reports


Display with metric or nautical units.
time (UTC)temp
F
wind
direction
speed
MPH
gust
MPH
rain 1hr
in
rain 24hr
in
rain mn
in
humidity
%
barometer
mb
20260905124539 45 247 0.0 0.0 0.00 0.02 0.00 94 1019.5
20260905123043 46 204 0.0 2.0 0.00 0.02 0.00 94 1019.5
20260905121542 46 217 2.0 4.0 0.00 0.02 0.00 94 1019.6
20260905120044 47 269 0.0 3.0 0.00 0.02 0.00 94 1019.5
20260905114543 47 214 1.0 4.0 0.00 0.02 0.00 94 1019.6
20260905113042 47 247 0.0 2.0 0.00 0.02 0.00 94 1019.5
20260905111541 48 247 0.0 2.0 0.00 0.02 0.00 94 1019.4
20260905110041 48 202 0.0 0.0 0.00 0.02 0.00 93 1019.5
20260905103045 49 223 0.0 3.0 0.00 0.02 0.00 93 1019.5
20260905100043 49 227 0.0 1.0 0.00 0.02 0.00 93 1019.6
20260905094700 49 210 0.0 2.0 0.00 0.02 0.00 93 1019.6
20260905093042 49 177 0.0 3.0 0.00 0.02 0.00 93 1019.4
20260905090042 49 198 1.0 3.0 0.00 0.02 0.00 93 1019.4
20260905084701 49 241 1.0 3.0 0.00 0.02 0.00 93 1019.3
20260905083041 48 247 0.0 0.0 0.00 0.02 0.00 93 1019.2
20260905080117 48 247 0.0 1.0 0.00 0.02 0.00 92 1019.1
20260905064643 48 270 1.0 2.0 0.00 0.02 0.02 90 1018.4
20260905061641 49 263 1.0 2.0 0.00 0.03 0.02 90 1018.3
20260905060037 49 204 0.0 2.0 0.00 0.03 0.02 90 1018.4
20260905054529 50 202 0.0 2.0 0.00 0.03 0.02 89 1018.4
20260905053143 51 164 1.0 4.0 0.00 0.03 0.02 88 1018.4
20260905051715 0 0 0.0 0.0 0.00 0.03 0.02 100
20260905044531 53 236 0.0 3.0 0.00 0.03 0.02 85 1018.1
20260905043031 53 276 1.0 4.0 0.00 0.03 0.02 84 1018.1
20260905034537 54 129 0.0 2.0 0.00 0.03 0.02 79 1018.0
20260905031529 58 9 3.0 5.0 0.00 0.03 0.02 73 1017.6
20260905030033 58 339 3.0 6.0 0.00 0.03 0.02 73 1017.5
20260905023032 59 312 2.0 5.0 0.00 0.03 0.02 71 1017.4
20260905021536 60 327 2.0 7.0 0.00 0.03 0.02 71 1017.4
20260905020031 60 334 3.0 8.0 0.00 0.03 0.02 70 1017.3
20260905014532 61 338 3.0 7.0 0.00 0.03 0.02 70 1017.1
20260905013029 61 326 3.0 6.0 0.00 0.03 0.02 70 1016.8
20260905001532 63 298 5.0 10.0 0.00 0.03 0.02 66 1016.3
20260905000142 63 295 4.0 9.0 0.00 0.03 0.02 65 1016.2
20260904234532 64 285 3.0 8.0 0.01 0.03 0.02 65 1016.1
20260904233034 62 291 2.0 7.0 0.01 0.03 0.02 66 1016.3
20260904231532 63 246 4.0 9.0 0.01 0.03 0.02 75 1016.3
20260904230031 58 209 4.0 9.0 0.02 0.03 0.01 79 1016.4
20260904224536 58 302 2.0 6.0 0.01 0.02 0.01 78 1016.2
20260904223036 59 300 3.0 6.0 0.01 0.02 0.01 74 1015.9
20260904221536 63 314 2.0 5.0 0.01 0.02 0.00 63 1015.9
20260904214535 70 58 2.0 7.0 0.00 0.01 0.00 52 1015.7
20260904211532 67 52 1.0 6.0 0.00 0.01 0.00 61 1015.7
20260904210029 65 26 3.0 5.0 0.00 0.01 0.00 62 1015.9
20260904203034 67 16 4.0 9.0 0.00 0.01 0.00 58 1015.9
20260904201530 67 12 4.0 8.0 0.00 0.01 0.00 58 1016.0
20260904194536 65 13 4.0 11.0 0.00 0.01 0.00 62 1016.2
20260904193034 65 347 3.0 9.0 0.00 0.01 0.00 62 1016.3
20260904191531 66 337 3.0 10.0 0.00 0.01 0.00 62 1016.3
20260904190035 66 14 3.0 10.0 0.00 0.01 0.00 63 1016.4
20260904184533 65 360 2.0 8.0 0.00 0.01 0.00 66 1016.4
20260904183032 64 15 4.0 9.0 0.00 0.01 0.00 69 1016.4
20260904181532 62 26 2.0 7.0 0.00 0.01 0.00 71 1016.4
20260904180029 62 78 3.0 7.0 0.00 0.01 0.00 72 1016.4
20260904174534 61 63 2.0 8.0 0.00 0.01 0.00 77 1016.4
20260904173141 59 4 1.0 5.0 0.00 0.01 0.00 79 1016.4
20260904171531 58 2 1.0 5.0 0.00 0.01 0.00 81 1016.4
20260904170034 57 313 1.0 6.0 0.00 0.01 0.00 83 1016.4
20260904164529 57 319 1.0 5.0 0.00 0.01 0.00 86 1016.4
20260904163032 56 305 2.0 5.0 0.00 0.01 0.00 88 1016.4
20260904161641 55 291 1.0 3.0 0.00 0.01 0.00 90 1016.4
20260904154609 53 171 0.0 3.0 0.00 0.01 0.00 93 1016.3
20260904153035 52 172 2.0 4.0 0.00 0.01 0.00 94 1016.3
20260904150029 50 247 0.0 1.0 0.00 0.01 0.00 95 1015.9
20260904144544 49 247 0.0 1.0 0.00 0.01 0.00 94 1015.7
20260904144536 48 271 1.0 3.0 0.00 0.01 0.00 94 1015.6
20260904141535 48 213 0.0 2.0 0.00 0.02 0.00 94 1015.5
20260904140032 48 202 0.0 0.0 0.00 0.02 0.00 94 1015.4
20260904131530 48 292 0.0 1.0 0.00 0.02 0.00 94 1014.8
20260904130144 48 292 1.0 3.0 0.00 0.02 0.00 94 1014.7